Location: Sweet Grass
(48.9965°N, 111.9649°W)
Time: 07:15:22
(UTC+00:00)

EO-79 - Pass Details

Date: 28 March 2023
Orbit: 578 x 593 km, 98.0° (Epoch: 03 June)

Event Time Altitude Azimuth Distance (km) Brightness Sun altitude
Rises 10:09:07 0° 10° (N) 2,839 ? -28.0°
Reaches altitude 10° 10:11:20 10° 6° (N) 1,930 ? -27.8°
Enters shadow 10:13:46 32° 349° (N) 1,018 ? -27.5°
